Flag for U.S.A. Weather past 2 weeks in Youngstown, Ohio, U.S.A.

Now
70 °F

Passing clouds.


Feels Like: 74 °F
Forecast: 63 / 80 °F
Wind: 5 mph from North

Location: Youngstown-Warren Regional Airport

Current Time: Aug 1, 2015 at 10:16:58 AM

Latest Report: Aug 1, 2015 at 8:51 AM


Visibility: 10 mi

Pressure: 29.92 "Hg

Humidity: 71%

Dew point: 60 °F

Location of YoungstownLocation

Historic Weather in Youngstown — Graph

°F

Youngstown temperature yesterday

Maximum temperature yesterday: 84 °F (at 1:51 PM)
Minimum temperature yesterday: 62 °F (at 4:51 AM)
Average temperature yesterday: 74 °F

Past Weeks' High & Low Weather Summary

 TemperatureHumidityPressure
High89 °F (Jul 28, 4:51 PM)97% (Jul 18, 4:51 AM)30.04 "Hg (Jul 18, 4:51 AM)
Low55 °F (Jul 23, 5:51 AM)32% (Jul 23, 4:51 PM)29.69 "Hg (Jul 21, 4:51 AM)
Average74 °F69%29.92 "Hg
* Reported Jul 17 8:51 AM — Aug 1 8:51 AM, Youngstown, Weather by CustomWeather, © 2015

Note: Actual official high and low records may vary slightly from our data, if they occured in-between our weather recording intervals... More about our weather records

Advertising

Youngstown weather history for previous 24 hours

 ConditionsComfort  
Time TempWeatherWind HumidityBarometerVisibility
8:51 AM
Sat, Aug 1
70 °FPassing clouds.5 mph71%29.92 "Hg10 mi
7:51 AM67 °FScattered clouds.No wind76%29.90 "Hg10 mi
6:51 AM61 °FPassing clouds.No wind90%29.89 "Hg10 mi
5:51 AM63 °FPassing clouds.5 mph81%29.88 "Hg10 mi
4:51 AM64 °FPassing clouds.5 mph81%29.87 "Hg10 mi
3:51 AM64 °FPassing clouds.7 mph81%29.87 "Hg10 mi
2:51 AM66 °FPassing clouds.8 mph78%29.87 "Hg10 mi
1:51 AM68 °FPassing clouds.9 mph73%29.87 "Hg10 mi
12:51 AM70 °FPassing clouds.8 mph68%29.87 "Hg10 mi
11:51 PM
Fri, Jul 31
72 °FPassing clouds.9 mph64%29.86 "Hg10 mi
10:51 PM74 °FPartly cloudy.9 mph57%29.86 "Hg10 mi
9:51 PM77 °FPassing clouds.8 mph50%29.84 "Hg10 mi
8:51 PM75 °FScattered clouds.8 mph54%29.85 "Hg10 mi
7:51 PM80 °FScattered clouds.7 mph42%29.85 "Hg10 mi
6:51 PM82 °FScattered clouds.13 mph38%29.85 "Hg10 mi
5:51 PM84 °FScattered clouds.10 mph33%29.87 "Hg10 mi
4:51 PM83 °FScattered clouds.12 mph38%29.88 "Hg10 mi
3:51 PM84 °FPartly sunny.8 mph40%29.88 "Hg10 mi
2:51 PM82 °FPartly sunny.10 mph40%29.90 "Hg10 mi
1:51 PM84 °FPartly sunny.9 mph37%29.91 "Hg10 mi
12:51 PM83 °FPartly sunny.10 mph40%29.93 "Hg10 mi
11:51 AM82 °FPassing clouds.12 mph44%29.94 "Hg10 mi
10:51 AM79 °FSunny.8 mph50%29.96 "Hg10 mi
Weather by CustomWeather, © 2015

See weather overviewHow to use our weather pages